Regional Weather Roundup
Issued by NWS Cleveland, OH

Home | Current Version | Previous Version | Graphics & Text | Print | Product List | Glossary On
Versions: 1 2 3 4 5 6 7 8 9 10 11 12 13 14 15 16 17 18 19 20 21 22 23 24 25 26 27 28 29 30 31 32 33 34 35 36 37 38 39 40 41 42 43 44 45 46 47 48 49 50
000
ASUS41 KCLE 171800
RWRCLE
OHIO REGIONAL WEATHER ROUNDUP
NATIONAL WEATHER SERVICE WILMINGTON, OH
200 PM EDT THU APR 17 2014

NOTE: "FAIR" INDICATES FEW OR NO CLOUDS BELOW 12,000 FEET WITH NO
SIGNIFICANT WEATHER AND/OR OBSTRUCTIONS TO VISIBILITY.

OHZ001>008-015>018-024>027-034-035-043-044-171900-
   NORTHWEST OHIO

CITY           SKY/WX    TMP DP  RH WIND       PRES   REMARKS
DEFIANCE       SUNNY     65  29  25 SW12G20   30.26F
FINDLAY        SUNNY     64  33  31 S17       30.28F
TOLEDO EXPRESS SUNNY     62  31  31 S12G22    30.27F
TOLEDO METCALF SUNNY     63  33  32 S15G22    30.29F
LIMA           SUNNY     63  33  32 SW16      30.29F
$$

OHZ009>014-019>023-028>033-038-089-171900-
   NORTHEAST OHIO

CITY           SKY/WX    TMP DP  RH WIND       PRES   REMARKS
CLE-HOPKINS    MOSUNNY   61  32  33 S12G23    30.37F
CLE-LAKEFRONT  SUNNY     60  31  33 S12       30.33F
CUY CO. ARPT   MOSUNNY   61  30  31 S15G23    30.36F
LORAIN-ELYRIA  SUNNY     63  33  32 S16       30.34F
ASHTABULA      SUNNY     57  28  33 S16G25    30.38F
AKRON-CANTON   PTSUNNY   60  28  29 S16       30.37F
WOOSTER        NOT AVBL
MANSFIELD      SUNNY     61  34  36 SW12      30.34F
YOUNGSTOWN     MOSUNNY   57  26  30 SE14G21   30.38F
$$

OHZ042-051>053-060>062-070>072-077>081-171900-
  SOUTHWEST OHIO

CITY           SKY/WX    TMP DP  RH WIND       PRES   REMARKS
CINC-COVINGTON MOSUNNY   64  36  35 S9G25     30.33F
CINC-LUNKEN    SUNNY     64  37  36 S13G18    30.34F
HAMILTON       SUNNY     68  35  29 S10G17    30.33F
DAYTON         NOT AVBL
WRIGHT-PAT AFB SUNNY     64  35  33 S9G17     30.32F
DAYTON GENERAL SUNNY     63  34  33 SW8       30.32F
WILMINGTON     SUNNY     63  34  33 MISG      30.34F
$$

OHZ036-037-039>041-045>050-054>059-063>069-073>076-082>088-171900-
  CENTRAL AND SOUTHEAST OHIO

CITY           SKY/WX    TMP DP  RH WIND       PRES   REMARKS
COLUMBUS       MOSUNNY   64  32  30 S10G23    30.35F
OSU AIRPORT    SUNNY     64  33  31 SW15G23   30.33F
BOLTON FIELD   SUNNY     63  37  39 SW12      30.35F
RICKENBACK AFB NOT AVBL
NEWARK         SUNNY     62  32  32 S16       30.36F
MARION         SUNNY     62  33  33 SW14      30.33F
LANCASTER      SUNNY     63  33  32 S10G21    30.37F
ZANESVILLE     SUNNY     62  28  27 SW7       30.37F
NEW PHILLY     SUNNY     62  28  27 SE10      30.38F
$$



USA.gov is the U.S. government's official web portal to all federal, state and local government web resources and services.